Hourly Weather Cekob

Today, 19 June, Saturday

Time Temperature Precipitation Wind Pressure Humidity
00:00 +13°C° 0 mm 2 mps 619 mmHg 80%
01:00 +13°C° 0 mm 2 mps 619 mmHg 79%
02:00 +13°C° 0 mm 2 mps 619 mmHg 77%
03:00 +13°C° 0 mm 2 mps 619 mmHg 76%
04:00 +14°C° 0 mm 2 mps 619 mmHg 73%
05:00 +15°C° 0 mm 1 mps 620 mmHg 70%
06:00 +16°C° 0 mm 1 mps 620 mmHg 67%
07:00 +19°C° 0 mm 1 mps 621 mmHg 60%
08:00 +21°C° 0 mm 1 mps 621 mmHg 53%
09:00 +23°C° 0 mm 2 mps 621 mmHg 45%
10:00 +24°C° 0 mm 2 mps 621 mmHg 44%
11:00 +25°C° 0 mm 2 mps 622 mmHg 42%
12:00 +26°C° 0 mm 2 mps 622 mmHg 41%
13:00 +26°C° 0 mm 2 mps 621 mmHg 42%
14:00 +26°C° 0 mm 2 mps 621 mmHg 43%
15:00 +26°C° 0 mm 2 mps 621 mmHg 45%
16:00 +25°C° 0 mm 2 mps 621 mmHg 50%
17:00 +24°C° 0 mm 2 mps 621 mmHg 55%
18:00 +23°C° 0 mm 2 mps 620 mmHg 59%
19:00 +20°C° 0 mm 2 mps 620 mmHg 61%
20:00 +18°C° 0 mm 2 mps 620 mmHg 64%
21:00 +16°C° 0 mm 3 mps 620 mmHg 66%
22:00 +14°C° 0 mm 3 mps 620 mmHg 62%
23:00 +14°C° 0 mm 3 mps 619 mmHg 58%

Tomorrow, 20 June, Sunday

Time Temperature Precipitation Wind Pressure Humidity
00:00 +14°C° 0 mm 3 mps 619 mmHg 54%
01:00 +14°C° 0 mm 3 mps 619 mmHg 53%
02:00 +13°C° 0 mm 3 mps 619 mmHg 52%
03:00 +13°C° 0 mm 3 mps 619 mmHg 52%
04:00 +14°C° 0 mm 3 mps 619 mmHg 51%
05:00 +16°C° 0 mm 3 mps 619 mmHg 50%
06:00 +17°C° 0 mm 3 mps 619 mmHg 50%
07:00 +19°C° 0 mm 3 mps 620 mmHg 45%
08:00 +21°C° 0 mm 2 mps 620 mmHg 40%
09:00 +24°C° 0 mm 2 mps 621 mmHg 36%
10:00 +25°C° 0 mm 2 mps 621 mmHg 34%
11:00 +26°C° 0 mm 2 mps 621 mmHg 32%
12:00 +27°C° 0 mm 2 mps 621 mmHg 31%
13:00 +28°C° 0 mm 2 mps 621 mmHg 32%
14:00 +28°C° 0 mm 2 mps 621 mmHg 32%
15:00 +28°C° 0 mm 2 mps 621 mmHg 33%
16:00 +27°C° 0 mm 2 mps 621 mmHg 40%
17:00 +26°C° 0 mm 2 mps 621 mmHg 46%
18:00 +24°C° 0 mm 2 mps 621 mmHg 53%
19:00 +21°C° 0 mm 3 mps 620 mmHg 54%
20:00 +19°C° 0 mm 3 mps 620 mmHg 56%
21:00 +17°C° 0 mm 3 mps 620 mmHg 58%
22:00 +16°C° 0 mm 3 mps 620 mmHg 59%
23:00 +16°C° 0 mm 3 mps 619 mmHg 59%

Day after tomorrow, 21 June, Monday

Time Temperature Precipitation Wind Pressure Humidity
00:00 +14°C° 0 mm 3 mps 619 mmHg 60%
01:00 +14°C° 0 mm 3 mps 619 mmHg 59%
02:00 +13°C° 0 mm 3 mps 619 mmHg 58%
03:00 +13°C° 0 mm 3 mps 619 mmHg 58%
04:00 +14°C° 0 mm 3 mps 619 mmHg 56%
05:00 +16°C° 0 mm 3 mps 619 mmHg 55%
06:00 +17°C° 0 mm 3 mps 619 mmHg 54%
07:00 +19°C° 0 mm 2 mps 620 mmHg 47%
08:00 +23°C° 0 mm 2 mps 620 mmHg 40%
09:00 +25°C° 0 mm 1 mps 621 mmHg 33%
10:00 +26°C° 0 mm 2 mps 621 mmHg 33%
11:00 +27°C° 0 mm 2 mps 621 mmHg 33%
12:00 +28°C° 0 mm 2 mps 621 mmHg 33%
13:00 +28°C° 0 mm 2 mps 621 mmHg 33%
14:00 +28°C° 0 mm 2 mps 621 mmHg 34%
15:00 +28°C° 0 mm 2 mps 621 mmHg 35%
16:00 +27°C° 0 mm 2 mps 621 mmHg 41%
17:00 +26°C° 0 mm 2 mps 620 mmHg 46%
18:00 +25°C° 0 mm 2 mps 620 mmHg 52%
19:00 +21°C° 0 mm 3 mps 620 mmHg 53%
20:00 +19°C° 0 mm 3 mps 620 mmHg 53%
21:00 +16°C° 0 mm 3 mps 619 mmHg 54%
22:00 +16°C° 0 mm 3 mps 619 mmHg 51%
23:00 +14°C° 0 mm 3 mps 619 mmHg 49%

22 June, Tuesday

Time Temperature Precipitation Wind Pressure Humidity
00:00 +14°C° 0 mm 3 mps 618 mmHg 46%
01:00 +14°C° 0 mm 3 mps 618 mmHg 45%
02:00 +14°C° 0 mm 3 mps 618 mmHg 43%
03:00 +14°C° 0 mm 3 mps 618 mmHg 42%
04:00 +16°C° 0 mm 3 mps 618 mmHg 44%
05:00 +17°C° 0 mm 3 mps 619 mmHg 46%
06:00 +18°C° 0 mm 2 mps 619 mmHg 48%
07:00 +20°C° 0 mm 2 mps 620 mmHg 42%
08:00 +24°C° 0 mm 2 mps 620 mmHg 37%
09:00 +26°C° 0 mm 1 mps 621 mmHg 31%
10:00 +27°C° 0 mm 2 mps 621 mmHg 31%
11:00 +28°C° 0 mm 2 mps 621 mmHg 32%
12:00 +29°C° 0 mm 2 mps 622 mmHg 32%
13:00 +29°C° 0 mm 2 mps 621 mmHg 34%
14:00 +28°C° 0 mm 2 mps 621 mmHg 35%
15:00 +28°C° 0 mm 2 mps 621 mmHg 37%
16:00 +27°C° 0 mm 2 mps 621 mmHg 42%
17:00 +26°C° 0 mm 2 mps 621 mmHg 48%
18:00 +26°C° 0 mm 1 mps 621 mmHg 53%
19:00 +23°C° 0 mm 2 mps 620 mmHg 53%
20:00 +20°C° 0 mm 2 mps 620 mmHg 52%
21:00 +17°C° 0 mm 3 mps 620 mmHg 52%
22:00 +16°C° 0 mm 3 mps 620 mmHg 48%
23:00 +16°C° 0 mm 3 mps 619 mmHg 44%

23 June, Wednesday

Time Temperature Precipitation Wind Pressure Humidity
00:00 +14°C° 0 mm 3 mps 619 mmHg 40%
01:00 +14°C° 0 mm 3 mps 619 mmHg 40%
02:00 +14°C° 0 mm 3 mps 619 mmHg 39%
03:00 +14°C° 0 mm 3 mps 619 mmHg 38%
04:00 +16°C° 0 mm 3 mps 619 mmHg 41%
05:00 +17°C° 0 mm 3 mps 619 mmHg 44%
06:00 +18°C° 0 mm 3 mps 620 mmHg 48%
07:00 +20°C° 0 mm 2 mps 620 mmHg 41%
08:00 +24°C° 0 mm 2 mps 621 mmHg 34%
09:00 +27°C° 0 mm 2 mps 621 mmHg 28%
10:00 +28°C° 0 mm 2 mps 621 mmHg 28%
11:00 +29°C° 0 mm 2 mps 622 mmHg 28%
12:00 +30°C° 0 mm 2 mps 622 mmHg 28%
13:00 +29°C° 0 mm 2 mps 622 mmHg 30%
14:00 +29°C° 0 mm 2 mps 622 mmHg 32%
15:00 +29°C° 0 mm 2 mps 622 mmHg 34%
16:00 +28°C° 0 mm 2 mps 621 mmHg 40%
17:00 +27°C° 0 mm 2 mps 621 mmHg 46%
18:00 +26°C° 0 mm 1 mps 621 mmHg 52%
19:00 +23°C° 0 mm 2 mps 621 mmHg 53%
20:00 +20°C° 0 mm 2 mps 621 mmHg 53%
21:00 +17°C° 0 mm 2 mps 620 mmHg 54%
22:00 +17°C° 0 mm 2 mps 620 mmHg 51%
23:00 +16°C° 0 mm 2 mps 620 mmHg 48%

24 June, Thursday

Time Temperature Precipitation Wind Pressure Humidity
00:00 +16°C° 0 mm 2 mps 620 mmHg 46%
01:00 +16°C° 0 mm 2 mps 620 mmHg 45%
02:00 +15°C° 0 mm 2 mps 620 mmHg 45%
03:00 +15°C° 0 mm 2 mps 619 mmHg 45%
04:00 +16°C° 0 mm 2 mps 620 mmHg 48%
05:00 +17°C° 0 mm 2 mps 620 mmHg 50%
06:00 +18°C° 0 mm 2 mps 620 mmHg 52%
07:00 +20°C° 0 mm 2 mps 621 mmHg 46%
08:00 +24°C° 0 mm 2 mps 621 mmHg 41%
09:00 +26°C° 0 mm 2 mps 622 mmHg 35%
10:00 +26°C° 0 mm 2 mps 622 mmHg 36%
11:00 +27°C° 0 mm 2 mps 622 mmHg 36%
12:00 +28°C° 0 mm 2 mps 622 mmHg 37%
13:00 +28°C° 0 mm 2 mps 622 mmHg 38%
14:00 +28°C° 0 mm 2 mps 622 mmHg 39%
15:00 +28°C° 0 mm 2 mps 622 mmHg 40%
16:00 +27°C° 0 mm 2 mps 622 mmHg 45%
17:00 +26°C° 0 mm 2 mps 622 mmHg 51%
18:00 +25°C° 0 mm 1 mps 621 mmHg 56%
19:00 +23°C° 0.1 mm 1 mps 621 mmHg 60%
20:00 +21°C° 0.1 mm 1 mps 621 mmHg 65%
21:00 +18°C° 0.1 mm 1 mps 620 mmHg 70%
22:00 +18°C° 0 mm 1 mps 620 mmHg 66%
23:00 +16°C° 0 mm 2 mps 620 mmHg 63%
Show more

We Need Your Consent

Meteoprog and our Service Providers may store and access personal data such as cookies, device identifiers or other similar technologies on your device and process such data to personalise content and ads, as well as provide social media features and to analyse the traffic.

  • Store and/or access information on your device

    Cookies, device identifiers or other information can be stored or accessed on your device for the purposes indicated above.

  • Personalised ads and content, ad and content measurement, audience insights, and products development

    Ads and content can be personalised based on a profile. More data can be added to better personalise ads and content. Ad and content performance can be measured. Insights about the audience who saw the ads and content can be derived. Such data can be used to develop or improve user’s experience, systems and software.

By clicking ‘I Agree’ you will allow the use of indicated cookies, device identifiers, web beacons or other similar technologies. Your settings can be changed in the browser on your device.

For certain purposes, legitimate interests may be relied on, rather than consent. You can read more about this in our Privacy and Cookie Policy.